iso_date,epoch_date,Year,Hour,Min,DOY,POS_DOY,Lat,Lon,BP,Ts,Ta,has_bp,has_ts,has_ta,BuoyID,Buoy_Type,Buoy_Owner,Logistics,Hemisphere
2019-04-22T07:59:31Z,1555919971,2019,8,0,112.333,112.333,-60.017,30.021,996.9,0.96,-999.0,yes,yes,no,300234066338770,BD2GI,AOML,THOMAS_THOMPSON,South
2019-04-22T09:00:00Z,1555923600,2019,9,0,112.375,112.375,-60.017,30.031,997.5,0.95,-999.0,yes,yes,no,300234066338770,BD2GI,AOML,THOMAS_THOMPSON,South
2019-04-22T10:00:28Z,1555927229,2019,10,0,112.417,112.417,-60.019,30.045,998.3,0.94,-999.0,yes,yes,no,300234066338770,BD2GI,AOML,THOMAS_THOMPSON,South
2019-04-22T10:59:31Z,1555930771,2019,11,0,112.458,112.458,-60.019,30.057,998.9,0.94,-999.0,yes,yes,no,300234066338770,BD2GI,AOML,THOMAS_THOMPSON,South
2019-04-22T12:00:00Z,1555934400,2019,12,0,112.5,112.5,-60.016,30.07,999.4,0.94,-999.0,yes,yes,no,300234066338770,BD2GI,AOML,THOMAS_THOMPSON,South
2019-04-22T13:00:28Z,1555938029,2019,13,0,112.542,112.542,-60.012,30.079,999.8,0.94,-999.0,yes,yes,no,300234066338770,BD2GI,AOML,THOMAS_THOMPSON,South
2019-04-22T13:59:31Z,1555941571,2019,14,0,112.583,112.583,-60.008,30.087,1000.0,0.93,-999.0,yes,yes,no,300234066338770,BD2GI,AOML,THOMAS_THOMPSON,South
2019-04-22T15:00:00Z,1555945200,2019,15,0,112.625,112.625,-60.003,30.093,1000.1,0.92,-999.0,yes,yes,no,300234066338770,BD2GI,AOML,THOMAS_THOMPSON,South
2019-04-22T16:00:28Z,1555948829,2019,16,0,112.667,112.667,-59.999,30.095,1000.2,0.91,-999.0,yes,yes,no,300234066338770,BD2GI,AOML,THOMAS_THOMPSON,South
2019-04-22T16:59:31Z,1555952371,2019,17,0,112.708,112.708,-59.996,30.094,1000.3,0.9,-999.0,yes,yes,no,300234066338770,BD2GI,AOML,THOMAS_THOMPSON,South
2019-04-22T18:00:00Z,1555956000,2019,18,0,112.75,112.75,-59.995,30.09,999.7,0.9,-999.0,yes,yes,no,300234066338770,BD2GI,AOML,THOMAS_THOMPSON,South
2019-04-22T19:00:28Z,1555959629,2019,19,0,112.792,112.792,-59.996,30.087,999.5,0.9,-999.0,yes,yes,no,300234066338770,BD2GI,AOML,THOMAS_THOMPSON,South
2019-04-22T19:59:31Z,1555963171,2019,20,0,112.833,112.833,-59.997,30.088,998.7,0.89,-999.0,yes,yes,no,300234066338770,BD2GI,AOML,THOMAS_THOMPSON,South
2019-04-22T21:00:00Z,1555966800,2019,21,0,112.875,112.875,-60.0,30.09,997.7,0.89,-999.0,yes,yes,no,300234066338770,BD2GI,AOML,THOMAS_THOMPSON,South
2019-04-22T22:00:28Z,1555970429,2019,22,0,112.917,112.917,-60.003,30.095,996.7,0.88,-999.0,yes,yes,no,300234066338770,BD2GI,AOML,THOMAS_THOMPSON,South
2019-04-22T22:59:31Z,1555973971,2019,23,0,112.958,112.958,-60.006,30.102,995.5,0.88,-999.0,yes,yes,no,300234066338770,BD2GI,AOML,THOMAS_THOMPSON,South
2019-04-23T00:00:00Z,1555977600,2019,0,0,113.0,113.0,-60.008,30.11,994.6,0.88,-999.0,yes,yes,no,300234066338770,BD2GI,AOML,THOMAS_THOMPSON,South
2019-04-23T01:00:28Z,1555981229,2019,1,0,113.042,113.042,-60.008,30.122,993.0,0.88,-999.0,yes,yes,no,300234066338770,BD2GI,AOML,THOMAS_THOMPSON,South
2019-04-23T01:59:31Z,1555984771,2019,2,0,113.083,113.083,-60.005,30.134,991.4,0.88,-999.0,yes,yes,no,300234066338770,BD2GI,AOML,THOMAS_THOMPSON,South
2019-04-23T03:00:00Z,1555988400,2019,3,0,113.125,113.125,-60.0,30.144,989.8,0.87,-999.0,yes,yes,no,300234066338770,BD2GI,AOML,THOMAS_THOMPSON,South
2019-04-23T04:00:28Z,1555992029,2019,4,0,113.167,113.167,-59.995,30.149,988.0,0.87,-999.0,yes,yes,no,300234066338770,BD2GI,AOML,THOMAS_THOMPSON,South
2019-04-23T04:59:31Z,1555995571,2019,5,0,113.208,113.208,-59.991,30.147,986.0,0.86,-999.0,yes,yes,no,300234066338770,BD2GI,AOML,THOMAS_THOMPSON,South
2019-04-23T06:00:00Z,1555999200,2019,6,0,113.25,113.25,-59.988,30.142,984.8,0.85,-999.0,yes,yes,no,300234066338770,BD2GI,AOML,THOMAS_THOMPSON,South
2019-04-23T07:00:28Z,1556002829,2019,7,0,113.292,113.292,-59.988,30.137,983.5,0.86,-999.0,yes,yes,no,300234066338770,BD2GI,AOML,THOMAS_THOMPSON,South
2019-04-23T07:59:31Z,1556006371,2019,8,0,113.333,113.333,-59.989,30.134,982.6,0.85,-999.0,yes,yes,no,300234066338770,BD2GI,AOML,THOMAS_THOMPSON,South
2019-04-23T09:00:00Z,1556010000,2019,9,0,113.375,113.375,-59.993,30.131,981.8,0.84,-999.0,yes,yes,no,300234066338770,BD2GI,AOML,THOMAS_THOMPSON,South
2019-04-23T10:00:28Z,1556013629,2019,10,0,113.417,113.417,-59.997,30.133,981.6,0.86,-999.0,yes,yes,no,300234066338770,BD2GI,AOML,THOMAS_THOMPSON,South
2019-04-23T10:59:31Z,1556017171,2019,11,0,113.458,113.458,-60.001,30.139,981.4,0.87,-999.0,yes,yes,no,300234066338770,BD2GI,AOML,THOMAS_THOMPSON,South
2019-04-23T12:00:00Z,1556020800,2019,12,0,113.5,113.5,-60.004,30.147,982.0,0.88,-999.0,yes,yes,no,300234066338770,BD2GI,AOML,THOMAS_THOMPSON,South
2019-04-23T13:00:28Z,1556024429,2019,13,0,113.542,113.542,-60.004,30.158,983.6,0.87,-999.0,yes,yes,no,300234066338770,BD2GI,AOML,THOMAS_THOMPSON,South
2019-04-23T13:59:31Z,1556027971,2019,14,0,113.583,113.583,-60.001,30.171,984.2,0.87,-999.0,yes,yes,no,300234066338770,BD2GI,AOML,THOMAS_THOMPSON,South
2019-04-23T15:00:00Z,1556031600,2019,15,0,113.625,113.625,-59.998,30.18,985.3,0.86,-999.0,yes,yes,no,300234066338770,BD2GI,AOML,THOMAS_THOMPSON,South
2019-04-23T16:00:28Z,1556035229,2019,16,0,113.667,113.667,-59.993,30.19,986.3,0.86,-999.0,yes,yes,no,300234066338770,BD2GI,AOML,THOMAS_THOMPSON,South
2019-04-23T16:59:31Z,1556038771,2019,17,0,113.708,113.708,-59.987,30.196,986.9,0.86,-999.0,yes,yes,no,300234066338770,BD2GI,AOML,THOMAS_THOMPSON,South
2019-04-23T18:00:00Z,1556042400,2019,18,0,113.75,113.75,-59.981,30.197,987.4,0.86,-999.0,yes,yes,no,300234066338770,BD2GI,AOML,THOMAS_THOMPSON,South
2019-04-23T19:00:28Z,1556046029,2019,19,0,113.792,113.792,-59.976,30.198,987.3,0.86,-999.0,yes,yes,no,300234066338770,BD2GI,AOML,THOMAS_THOMPSON,South
2019-04-23T19:59:31Z,1556049571,2019,20,0,113.833,113.833,-59.972,30.195,987.4,0.87,-999.0,yes,yes,no,300234066338770,BD2GI,AOML,THOMAS_THOMPSON,South
2019-04-23T21:00:00Z,1556053200,2019,21,0,113.875,113.875,-59.971,30.193,986.9,0.86,-999.0,yes,yes,no,300234066338770,BD2GI,AOML,THOMAS_THOMPSON,South
2019-04-23T22:00:28Z,1556056829,2019,22,0,113.917,113.917,-59.971,30.193,986.4,0.86,-999.0,yes,yes,no,300234066338770,BD2GI,AOML,THOMAS_THOMPSON,South
2019-04-23T22:59:31Z,1556060371,2019,23,0,113.958,113.958,-59.972,30.193,985.9,0.87,-999.0,yes,yes,no,300234066338770,BD2GI,AOML,THOMAS_THOMPSON,South
2019-04-24T00:00:00Z,1556064000,2019,0,0,114.0,114.0,-59.973,30.196,985.1,0.87,-999.0,yes,yes,no,300234066338770,BD2GI,AOML,THOMAS_THOMPSON,South
2019-04-24T01:00:28Z,1556067629,2019,1,0,114.042,114.042,-59.976,30.201,984.2,0.86,-999.0,yes,yes,no,300234066338770,BD2GI,AOML,THOMAS_THOMPSON,South
2019-04-24T01:59:31Z,1556071171,2019,2,0,114.083,114.083,-59.976,30.208,983.1,0.86,-999.0,yes,yes,no,300234066338770,BD2GI,AOML,THOMAS_THOMPSON,South
2019-04-24T03:00:00Z,1556074800,2019,3,0,114.125,114.125,-59.975,30.215,981.3,0.86,-999.0,yes,yes,no,300234066338770,BD2GI,AOML,THOMAS_THOMPSON,South
2019-04-24T04:00:28Z,1556078429,2019,4,0,114.167,114.167,-59.975,30.218,980.6,0.86,-999.0,yes,yes,no,300234066338770,BD2GI,AOML,THOMAS_THOMPSON,South
2019-04-24T04:59:31Z,1556081971,2019,5,0,114.208,114.208,-59.975,30.223,979.3,0.86,-999.0,yes,yes,no,300234066338770,BD2GI,AOML,THOMAS_THOMPSON,South
2019-04-24T06:00:00Z,1556085600,2019,6,0,114.25,114.25,-59.974,30.233,977.9,0.86,-999.0,yes,yes,no,300234066338770,BD2GI,AOML,THOMAS_THOMPSON,South
2019-04-24T07:00:28Z,1556089229,2019,7,0,114.292,114.292,-59.971,30.239,977.8,0.86,-999.0,yes,yes,no,300234066338770,BD2GI,AOML,THOMAS_THOMPSON,South
2019-04-24T07:59:31Z,1556092771,2019,8,0,114.333,114.333,-59.967,30.242,976.7,0.86,-999.0,yes,yes,no,300234066338770,BD2GI,AOML,THOMAS_THOMPSON,South
2019-04-24T09:00:00Z,1556096400,2019,9,0,114.375,114.375,-59.963,30.244,976.2,0.85,-999.0,yes,yes,no,300234066338770,BD2GI,AOML,THOMAS_THOMPSON,South
2019-04-24T10:00:28Z,1556100029,2019,10,0,114.417,114.417,-59.96,30.244,976.3,0.85,-999.0,yes,yes,no,300234066338770,BD2GI,AOML,THOMAS_THOMPSON,South
2019-04-24T10:59:31Z,1556103571,2019,11,0,114.458,114.458,-59.958,30.246,977.1,0.86,-999.0,yes,yes,no,300234066338770,BD2GI,AOML,THOMAS_THOMPSON,South
2019-04-24T12:00:00Z,1556107200,2019,12,0,114.5,114.5,-59.953,30.25,978.7,0.86,-999.0,yes,yes,no,300234066338770,BD2GI,AOML,THOMAS_THOMPSON,South
2019-04-24T13:00:28Z,1556110829,2019,13,0,114.542,114.542,-59.949,30.253,980.1,0.86,-999.0,yes,yes,no,300234066338770,BD2GI,AOML,THOMAS_THOMPSON,South
2019-04-24T13:59:31Z,1556114371,2019,14,0,114.583,114.583,-59.944,30.259,981.2,0.85,-999.0,yes,yes,no,300234066338770,BD2GI,AOML,THOMAS_THOMPSON,South
2019-04-24T15:00:00Z,1556118000,2019,15,0,114.625,114.625,-59.94,30.265,982.0,0.85,-999.0,yes,yes,no,300234066338770,BD2GI,AOML,THOMAS_THOMPSON,South
2019-04-24T16:00:28Z,1556121629,2019,16,0,114.667,114.667,-59.935,30.27,982.5,0.85,-999.0,yes,yes,no,300234066338770,BD2GI,AOML,THOMAS_THOMPSON,South
2019-04-24T16:59:31Z,1556125171,2019,17,0,114.708,114.708,-59.93,30.272,983.2,0.85,-999.0,yes,yes,no,300234066338770,BD2GI,AOML,THOMAS_THOMPSON,South
2019-04-24T18:00:00Z,1556128800,2019,18,0,114.75,114.75,-59.925,30.274,984.2,0.85,-999.0,yes,yes,no,300234066338770,BD2GI,AOML,THOMAS_THOMPSON,South
2019-04-24T19:00:28Z,1556132429,2019,19,0,114.792,114.792,-59.921,30.275,984.9,0.85,-999.0,yes,yes,no,300234066338770,BD2GI,AOML,THOMAS_THOMPSON,South
2019-04-24T19:59:31Z,1556135971,2019,20,0,114.833,114.833,-59.918,30.276,985.6,0.85,-999.0,yes,yes,no,300234066338770,BD2GI,AOML,THOMAS_THOMPSON,South
2019-04-24T21:00:00Z,1556139600,2019,21,0,114.875,114.875,-59.916,30.277,986.2,0.84,-999.0,yes,yes,no,300234066338770,BD2GI,AOML,THOMAS_THOMPSON,South
2019-04-24T22:00:28Z,1556143229,2019,22,0,114.917,114.917,-59.913,30.284,986.7,0.84,-999.0,yes,yes,no,300234066338770,BD2GI,AOML,THOMAS_THOMPSON,South
2019-04-24T22:59:31Z,1556146771,2019,23,0,114.958,114.958,-59.909,30.288,987.3,0.83,-999.0,yes,yes,no,300234066338770,BD2GI,AOML,THOMAS_THOMPSON,South
2019-04-25T00:00:00Z,1556150400,2019,0,0,115.0,115.0,-59.906,30.295,987.5,0.84,-999.0,yes,yes,no,300234066338770,BD2GI,AOML,THOMAS_THOMPSON,South
2019-04-25T01:00:28Z,1556154029,2019,1,0,115.042,115.042,-59.903,30.302,987.9,0.83,-999.0,yes,yes,no,300234066338770,BD2GI,AOML,THOMAS_THOMPSON,South
2019-04-25T01:59:31Z,1556157571,2019,2,0,115.083,115.083,-59.899,30.308,988.0,0.83,-999.0,yes,yes,no,300234066338770,BD2GI,AOML,THOMAS_THOMPSON,South
2019-04-25T03:00:00Z,1556161200,2019,3,0,115.125,115.125,-59.894,30.314,988.5,0.82,-999.0,yes,yes,no,300234066338770,BD2GI,AOML,THOMAS_THOMPSON,South
2019-04-25T04:00:28Z,1556164829,2019,4,0,115.167,115.167,-59.888,30.315,988.5,0.82,-999.0,yes,yes,no,300234066338770,BD2GI,AOML,THOMAS_THOMPSON,South
2019-04-25T04:59:31Z,1556168371,2019,5,0,115.208,115.208,-59.885,30.318,988.8,0.82,-999.0,yes,yes,no,300234066338770,BD2GI,AOML,THOMAS_THOMPSON,South
2019-04-25T06:00:00Z,1556172000,2019,6,0,115.25,115.25,-59.882,30.319,989.3,0.81,-999.0,yes,yes,no,300234066338770,BD2GI,AOML,THOMAS_THOMPSON,South
2019-04-25T07:00:28Z,1556175629,2019,7,0,115.292,115.292,-59.879,30.318,989.6,0.81,-999.0,yes,yes,no,300234066338770,BD2GI,AOML,THOMAS_THOMPSON,South
2019-04-25T07:59:31Z,1556179171,2019,8,0,115.333,115.333,-59.877,30.319,989.9,0.81,-999.0,yes,yes,no,300234066338770,BD2GI,AOML,THOMAS_THOMPSON,South
2019-04-25T09:00:00Z,1556182800,2019,9,0,115.375,115.375,-59.875,30.319,990.1,0.81,-999.0,yes,yes,no,300234066338770,BD2GI,AOML,THOMAS_THOMPSON,South
2019-04-25T10:00:28Z,1556186429,2019,10,0,115.417,115.417,-59.873,30.323,990.1,0.81,-999.0,yes,yes,no,300234066338770,BD2GI,AOML,THOMAS_THOMPSON,South
2019-04-25T10:59:31Z,1556189971,2019,11,0,115.458,115.458,-59.87,30.326,990.0,0.81,-999.0,yes,yes,no,300234066338770,BD2GI,AOML,THOMAS_THOMPSON,South
2019-04-25T12:00:00Z,1556193600,2019,12,0,115.5,115.5,-59.867,30.326,989.5,0.81,-999.0,yes,yes,no,300234066338770,BD2GI,AOML,THOMAS_THOMPSON,South
2019-04-25T13:00:28Z,1556197229,2019,13,0,115.542,115.542,-59.865,30.325,989.2,0.8,-999.0,yes,yes,no,300234066338770,BD2GI,AOML,THOMAS_THOMPSON,South
2019-04-25T13:59:31Z,1556200771,2019,14,0,115.583,115.583,-59.864,30.324,988.8,0.8,-999.0,yes,yes,no,300234066338770,BD2GI,AOML,THOMAS_THOMPSON,South
2019-04-25T15:00:00Z,1556204400,2019,15,0,115.625,115.625,-59.861,30.32,987.6,0.79,-999.0,yes,yes,no,300234066338770,BD2GI,AOML,THOMAS_THOMPSON,South
2019-04-25T16:00:28Z,1556208029,2019,16,0,115.667,115.667,-59.86,30.317,985.7,0.79,-999.0,yes,yes,no,300234066338770,BD2GI,AOML,THOMAS_THOMPSON,South
2019-04-25T16:59:31Z,1556211571,2019,17,0,115.708,115.708,-59.86,30.312,983.9,0.79,-999.0,yes,yes,no,300234066338770,BD2GI,AOML,THOMAS_THOMPSON,South
2019-04-25T18:00:00Z,1556215200,2019,18,0,115.75,115.75,-59.859,30.31,981.1,0.79,-999.0,yes,yes,no,300234066338770,BD2GI,AOML,THOMAS_THOMPSON,South
2019-04-25T19:00:28Z,1556218829,2019,19,0,115.792,115.792,-59.859,30.306,979.1,0.79,-999.0,yes,yes,no,300234066338770,BD2GI,AOML,THOMAS_THOMPSON,South
2019-04-25T19:59:31Z,1556222371,2019,20,0,115.833,115.833,-59.859,30.302,976.6,0.79,-999.0,yes,yes,no,300234066338770,BD2GI,AOML,THOMAS_THOMPSON,South
2019-04-25T21:00:00Z,1556226000,2019,21,0,115.875,115.875,-59.859,30.294,973.5,0.79,-999.0,yes,yes,no,300234066338770,BD2GI,AOML,THOMAS_THOMPSON,South
2019-04-25T22:00:28Z,1556229629,2019,22,0,115.917,115.917,-59.862,30.286,970.7,0.77,-999.0,yes,yes,no,300234066338770,BD2GI,AOML,THOMAS_THOMPSON,South
2019-04-25T22:59:31Z,1556233171,2019,23,0,115.958,115.958,-59.865,30.278,967.9,0.77,-999.0,yes,yes,no,300234066338770,BD2GI,AOML,THOMAS_THOMPSON,South
2019-04-26T00:00:00Z,1556236800,2019,0,0,116.0,116.0,-59.867,30.272,964.5,0.78,-999.0,yes,yes,no,300234066338770,BD2GI,AOML,THOMAS_THOMPSON,South
2019-04-26T01:00:28Z,1556240429,2019,1,0,116.042,116.042,-59.87,30.265,961.7,0.78,-999.0,yes,yes,no,300234066338770,BD2GI,AOML,THOMAS_THOMPSON,South
2019-04-26T01:59:31Z,1556243971,2019,2,0,116.083,116.083,-59.874,30.259,959.8,0.78,-999.0,yes,yes,no,300234066338770,BD2GI,AOML,THOMAS_THOMPSON,South
2019-04-26T03:00:00Z,1556247600,2019,3,0,116.125,116.125,-59.878,30.259,958.6,0.79,-999.0,yes,yes,no,300234066338770,BD2GI,AOML,THOMAS_THOMPSON,South
2019-04-26T04:00:28Z,1556251229,2019,4,0,116.167,116.167,-59.88,30.262,957.7,0.79,-999.0,yes,yes,no,300234066338770,BD2GI,AOML,THOMAS_THOMPSON,South
2019-04-26T04:59:31Z,1556254771,2019,5,0,116.208,116.208,-59.881,30.266,956.6,0.78,-999.0,yes,yes,no,300234066338770,BD2GI,AOML,THOMAS_THOMPSON,South
2019-04-26T06:00:00Z,1556258400,2019,6,0,116.25,116.25,-59.88,30.269,955.6,0.77,-999.0,yes,yes,no,300234066338770,BD2GI,AOML,THOMAS_THOMPSON,South
2019-04-26T07:00:28Z,1556262029,2019,7,0,116.292,116.292,-59.879,30.272,954.5,0.78,-999.0,yes,yes,no,300234066338770,BD2GI,AOML,THOMAS_THOMPSON,South
2019-04-26T07:59:31Z,1556265571,2019,8,0,116.333,116.333,-59.876,30.273,953.8,0.78,-999.0,yes,yes,no,300234066338770,BD2GI,AOML,THOMAS_THOMPSON,South
2019-04-26T09:00:00Z,1556269200,2019,9,0,116.375,116.375,-59.872,30.271,953.3,0.79,-999.0,yes,yes,no,300234066338770,BD2GI,AOML,THOMAS_THOMPSON,South
2019-04-26T10:00:28Z,1556272829,2019,10,0,116.417,116.417,-59.869,30.263,952.3,0.79,-999.0,yes,yes,no,300234066338770,BD2GI,AOML,THOMAS_THOMPSON,South
2019-04-26T10:59:31Z,1556276371,2019,11,0,116.458,116.458,-59.867,30.254,951.4,0.79,-999.0,yes,yes,no,300234066338770,BD2GI,AOML,THOMAS_THOMPSON,South
2019-04-26T12:00:00Z,1556280000,2019,12,0,116.5,116.5,-59.866,30.244,950.7,0.79,-999.0,yes,yes,no,300234066338770,BD2GI,AOML,THOMAS_THOMPSON,South
2019-04-26T13:00:28Z,1556283629,2019,13,0,116.542,116.542,-59.865,30.233,950.5,0.78,-999.0,yes,yes,no,300234066338770,BD2GI,AOML,THOMAS_THOMPSON,South
2019-04-26T13:59:31Z,1556287171,2019,14,0,116.583,116.583,-59.867,30.223,950.3,0.78,-999.0,yes,yes,no,300234066338770,BD2GI,AOML,THOMAS_THOMPSON,South
2019-04-26T15:00:00Z,1556290800,2019,15,0,116.625,116.625,-59.869,30.215,950.3,0.76,-999.0,yes,yes,no,300234066338770,BD2GI,AOML,THOMAS_THOMPSON,South
2019-04-26T16:00:28Z,1556294429,2019,16,0,116.667,116.667,-59.87,30.21,951.0,0.77,-999.0,yes,yes,no,300234066338770,BD2GI,AOML,THOMAS_THOMPSON,South
2019-04-26T16:59:31Z,1556297971,2019,17,0,116.708,116.708,-59.87,30.208,951.7,0.76,-999.0,yes,yes,no,300234066338770,BD2GI,AOML,THOMAS_THOMPSON,South
2019-04-26T18:00:00Z,1556301600,2019,18,0,116.75,116.75,-59.869,30.207,952.3,0.76,-999.0,yes,yes,no,300234066338770,BD2GI,AOML,THOMAS_THOMPSON,South
2019-04-26T19:00:28Z,1556305229,2019,19,0,116.792,116.792,-59.867,30.206,953.4,0.76,-999.0,yes,yes,no,300234066338770,BD2GI,AOML,THOMAS_THOMPSON,South
2019-04-26T19:59:31Z,1556308771,2019,20,0,116.833,116.833,-59.864,30.203,954.6,0.76,-999.0,yes,yes,no,300234066338770,BD2GI,AOML,THOMAS_THOMPSON,South
2019-04-26T21:00:00Z,1556312400,2019,21,0,116.875,116.875,-59.86,30.198,955.8,0.76,-999.0,yes,yes,no,300234066338770,BD2GI,AOML,THOMAS_THOMPSON,South
2019-04-26T22:00:28Z,1556316029,2019,22,0,116.917,116.917,-59.855,30.19,956.6,0.75,-999.0,yes,yes,no,300234066338770,BD2GI,AOML,THOMAS_THOMPSON,South
2019-04-26T22:59:31Z,1556319571,2019,23,0,116.958,116.958,-59.85,30.18,958.0,0.75,-999.0,yes,yes,no,300234066338770,BD2GI,AOML,THOMAS_THOMPSON,South
2019-04-27T00:00:00Z,1556323200,2019,0,0,117.0,117.0,-59.847,30.17,959.0,0.75,-999.0,yes,yes,no,300234066338770,BD2GI,AOML,THOMAS_THOMPSON,South
2019-04-27T01:00:28Z,1556326829,2019,1,0,117.042,117.042,-59.845,30.158,960.0,0.76,-999.0,yes,yes,no,300234066338770,BD2GI,AOML,THOMAS_THOMPSON,South
2019-04-27T01:59:31Z,1556330371,2019,2,0,117.083,117.083,-59.843,30.146,961.6,0.76,-999.0,yes,yes,no,300234066338770,BD2GI,AOML,THOMAS_THOMPSON,South
2019-04-27T03:00:00Z,1556334000,2019,3,0,117.125,117.125,-59.841,30.137,963.4,0.76,-999.0,yes,yes,no,300234066338770,BD2GI,AOML,THOMAS_THOMPSON,South
2019-04-27T04:00:28Z,1556337629,2019,4,0,117.167,117.167,-59.839,30.132,964.8,0.77,-999.0,yes,yes,no,300234066338770,BD2GI,AOML,THOMAS_THOMPSON,South
2019-04-27T04:59:31Z,1556341171,2019,5,0,117.208,117.208,-59.834,30.129,966.0,0.77,-999.0,yes,yes,no,300234066338770,BD2GI,AOML,THOMAS_THOMPSON,South
2019-04-27T06:00:00Z,1556344800,2019,6,0,117.25,117.25,-59.831,30.126,967.2,0.77,-999.0,yes,yes,no,300234066338770,BD2GI,AOML,THOMAS_THOMPSON,South
2019-04-27T07:00:28Z,1556348429,2019,7,0,117.292,117.292,-59.828,30.122,968.4,0.77,-999.0,yes,yes,no,300234066338770,BD2GI,AOML,THOMAS_THOMPSON,South
2019-04-27T07:59:31Z,1556351971,2019,8,0,117.333,117.333,-59.824,30.121,969.9,0.77,-999.0,yes,yes,no,300234066338770,BD2GI,AOML,THOMAS_THOMPSON,South
2019-04-27T09:00:00Z,1556355600,2019,9,0,117.375,117.375,-59.819,30.121,971.4,0.77,-999.0,yes,yes,no,300234066338770,BD2GI,AOML,THOMAS_THOMPSON,South
2019-04-27T10:00:28Z,1556359229,2019,10,0,117.417,117.417,-59.812,30.118,972.6,0.77,-999.0,yes,yes,no,300234066338770,BD2GI,AOML,THOMAS_THOMPSON,South
2019-04-27T10:59:31Z,1556362771,2019,11,0,117.458,117.458,-59.805,30.112,973.5,0.77,-999.0,yes,yes,no,300234066338770,BD2GI,AOML,THOMAS_THOMPSON,South
2019-04-27T12:00:00Z,1556366400,2019,12,0,117.5,117.5,-59.799,30.105,974.2,0.77,-999.0,yes,yes,no,300234066338770,BD2GI,AOML,THOMAS_THOMPSON,South
2019-04-27T13:00:28Z,1556370029,2019,13,0,117.542,117.542,-59.794,30.098,975.1,0.77,-999.0,yes,yes,no,300234066338770,BD2GI,AOML,THOMAS_THOMPSON,South
2019-04-27T13:59:31Z,1556373571,2019,14,0,117.583,117.583,-59.789,30.09,975.6,0.76,-999.0,yes,yes,no,300234066338770,BD2GI,AOML,THOMAS_THOMPSON,South
2019-04-27T15:00:00Z,1556377200,2019,15,0,117.625,117.625,-59.786,30.083,976.2,0.76,-999.0,yes,yes,no,300234066338770,BD2GI,AOML,THOMAS_THOMPSON,South
2019-04-27T16:00:28Z,1556380829,2019,16,0,117.667,117.667,-59.784,30.076,976.7,0.76,-999.0,yes,yes,no,300234066338770,BD2GI,AOML,THOMAS_THOMPSON,South
2019-04-27T16:59:31Z,1556384371,2019,17,0,117.708,117.708,-59.78,30.073,977.0,0.76,-999.0,yes,yes,no,300234066338770,BD2GI,AOML,THOMAS_THOMPSON,South
2019-04-27T18:00:00Z,1556388000,2019,18,0,117.75,117.75,-59.777,30.072,977.2,0.76,-999.0,yes,yes,no,300234066338770,BD2GI,AOML,THOMAS_THOMPSON,South
2019-04-27T19:00:28Z,1556391629,2019,19,0,117.792,117.792,-59.775,30.071,978.0,0.77,-999.0,yes,yes,no,300234066338770,BD2GI,AOML,THOMAS_THOMPSON,South
2019-04-27T19:59:31Z,1556395171,2019,20,0,117.833,117.833,-59.772,30.071,979.0,0.76,-999.0,yes,yes,no,300234066338770,BD2GI,AOML,THOMAS_THOMPSON,South
2019-04-27T21:00:00Z,1556398800,2019,21,0,117.875,117.875,-59.766,30.068,979.9,0.77,-999.0,yes,yes,no,300234066338770,BD2GI,AOML,THOMAS_THOMPSON,South
2019-04-27T22:00:28Z,1556402429,2019,22,0,117.917,117.917,-59.76,30.063,981.1,0.77,-999.0,yes,yes,no,300234066338770,BD2GI,AOML,THOMAS_THOMPSON,South
2019-04-27T22:59:31Z,1556405971,2019,23,0,117.958,117.958,-59.754,30.057,981.8,0.77,-999.0,yes,yes,no,300234066338770,BD2GI,AOML,THOMAS_THOMPSON,South
2019-04-28T00:00:00Z,1556409600,2019,0,0,118.0,118.0,-59.749,30.052,982.6,0.77,-999.0,yes,yes,no,300234066338770,BD2GI,AOML,THOMAS_THOMPSON,South
2019-04-28T01:00:28Z,1556413229,2019,1,0,118.042,118.042,-59.744,30.047,983.2,0.77,-999.0,yes,yes,no,300234066338770,BD2GI,AOML,THOMAS_THOMPSON,South
2019-04-28T01:59:31Z,1556416771,2019,2,0,118.083,118.083,-59.737,30.042,984.2,0.77,-999.0,yes,yes,no,300234066338770,BD2GI,AOML,THOMAS_THOMPSON,South
2019-04-28T03:00:00Z,1556420400,2019,3,0,118.125,118.125,-59.731,30.032,985.8,0.76,-999.0,yes,yes,no,300234066338770,BD2GI,AOML,THOMAS_THOMPSON,South
2019-04-28T04:00:28Z,1556424029,2019,4,0,118.167,118.167,-59.724,30.022,987.6,0.76,-999.0,yes,yes,no,300234066338770,BD2GI,AOML,THOMAS_THOMPSON,South
2019-04-28T04:59:31Z,1556427571,2019,5,0,118.208,118.208,-59.718,30.015,989.8,0.76,-999.0,yes,yes,no,300234066338770,BD2GI,AOML,THOMAS_THOMPSON,South
2019-04-28T06:00:00Z,1556431200,2019,6,0,118.25,118.25,-59.711,30.006,991.8,0.75,-999.0,yes,yes,no,300234066338770,BD2GI,AOML,THOMAS_THOMPSON,South
2019-04-28T07:00:28Z,1556434829,2019,7,0,118.292,118.292,-59.706,29.996,993.6,0.75,-999.0,yes,yes,no,300234066338770,BD2GI,AOML,THOMAS_THOMPSON,South
2019-04-28T07:59:31Z,1556438371,2019,8,0,118.333,118.333,-59.702,29.982,994.9,0.75,-999.0,yes,yes,no,300234066338770,BD2GI,AOML,THOMAS_THOMPSON,South
2019-04-28T09:00:00Z,1556442000,2019,9,0,118.375,118.375,-59.7,29.969,996.7,0.75,-999.0,yes,yes,no,300234066338770,BD2GI,AOML,THOMAS_THOMPSON,South
2019-04-28T10:00:28Z,1556445629,2019,10,0,118.417,118.417,-59.699,29.957,997.7,0.74,-999.0,yes,yes,no,300234066338770,BD2GI,AOML,THOMAS_THOMPSON,South
2019-04-28T10:59:31Z,1556449171,2019,11,0,118.458,118.458,-59.698,29.948,998.8,0.74,-999.0,yes,yes,no,300234066338770,BD2GI,AOML,THOMAS_THOMPSON,South
2019-04-28T12:00:00Z,1556452800,2019,12,0,118.5,118.5,-59.697,29.939,999.7,0.74,-999.0,yes,yes,no,300234066338770,BD2GI,AOML,THOMAS_THOMPSON,South
2019-04-28T13:00:28Z,1556456429,2019,13,0,118.542,118.542,-59.696,29.932,1000.2,0.73,-999.0,yes,yes,no,300234066338770,BD2GI,AOML,THOMAS_THOMPSON,South
2019-04-28T13:59:31Z,1556459971,2019,14,0,118.583,118.583,-59.696,29.925,1000.8,0.72,-999.0,yes,yes,no,300234066338770,BD2GI,AOML,THOMAS_THOMPSON,South
2019-04-28T15:00:00Z,1556463600,2019,15,0,118.625,118.625,-59.694,29.923,1001.3,0.73,-999.0,yes,yes,no,300234066338770,BD2GI,AOML,THOMAS_THOMPSON,South
2019-04-28T16:00:28Z,1556467229,2019,16,0,118.667,118.667,-59.691,29.919,1001.9,0.72,-999.0,yes,yes,no,300234066338770,BD2GI,AOML,THOMAS_THOMPSON,South
2019-04-28T16:59:31Z,1556470771,2019,17,0,118.708,118.708,-59.687,29.915,1002.0,0.72,-999.0,yes,yes,no,300234066338770,BD2GI,AOML,THOMAS_THOMPSON,South
2019-04-28T18:00:00Z,1556474400,2019,18,0,118.75,118.75,-59.683,29.907,1002.2,0.71,-999.0,yes,yes,no,300234066338770,BD2GI,AOML,THOMAS_THOMPSON,South
2019-04-28T19:00:28Z,1556478029,2019,19,0,118.792,118.792,-59.679,29.9,1002.1,0.71,-999.0,yes,yes,no,300234066338770,BD2GI,AOML,THOMAS_THOMPSON,South
2019-04-28T19:59:31Z,1556481571,2019,20,0,118.833,118.833,-59.676,29.89,1002.3,0.71,-999.0,yes,yes,no,300234066338770,BD2GI,AOML,THOMAS_THOMPSON,South
2019-04-28T21:00:00Z,1556485200,2019,21,0,118.875,118.875,-59.673,29.877,1002.2,0.71,-999.0,yes,yes,no,300234066338770,BD2GI,AOML,THOMAS_THOMPSON,South
2019-04-28T22:00:28Z,1556488829,2019,22,0,118.917,118.917,-59.672,29.866,1002.0,0.71,-999.0,yes,yes,no,300234066338770,BD2GI,AOML,THOMAS_THOMPSON,South